CAPE
0 0 1 1 3 2 1 0 19 1 2 1 0 0 0 0 0 0 0 0 0 0 0 0 0 0 0 0 0 0 0 0 0 0 0 0 0 0 0 0 0 0 0
0 2 2 1 1 2 3 0 0 1 3 0 0 0 0 0 0 0 0 0 0 0 0 0 0 0 0 0 0 0 0 0 0 0 0 0 0 0 0 0 0 0 0
0 1 0 1 2 1 2 2 1 0 0 1 2 0 0 0 0 0 0 0 0 0 0 0 0 0 0 0 0 0 0 0 0 0 0 0 0 0 0 0 0 0 0
1 1 0 2 2 1 1 5 2 3 0 1 1 7 0 0 0 0 0 0 0 0 0 0 0 0 0 0 0 0 0 0 0 3 0 0 0 0 0 0 0 0 0
1 0 0 0 1 1 0 1 2 2 2 1 0 6 7 0 0 0 0 0 0 0 0 0 0 0 0 0 0 0 0 1 1 12 12 0 0 0 0 0 0 0 0
1 1 1 0 1 0 1 0 1 2 1 2 1 1 13 2 0 0 0 0 0 0 0 0 0 0 0 0 0 0 0 10 4 6 21 7 1 0 0 0 0 1 4
2 0 1 0 1 1 1 1 0 1 1 2 2 1 1 0 0 0 0 0 0 1 0 0 0 0 0 0 0 0 0 0 0 12 32 16 32 3 6 0 1 0 5
3 2 1 0 2 2 1 1 1 0 2 3 2 3 2 3 2 1 0 0 1 6 2 0 0 0 0 0 0 0 0 0 0 0 10 27 34 45 22 5 0 0 0
0 3 3 1 0 1 1 2 2 3 2 2 3 2 3 3 5 2 1 0 0 1 5 4 3 0 0 0 0 0 0 0 0 0 0 4 2 3 1 0 0 2 3
0 0 1 4 2 2 1 1 2 3 3 3 3 3 6 5 9 5 1 1 2 2 0 0 0 0 0 0 0 0 0 0 0 0 0 0 0 0 0 0 0 0 1
0 0 0 0 3 3 1 1 2 2 2 2 3 2 4 5 4 12 8 1 1 0 0 0 0 0 0 0 0 0 0 0 0 0 0 0 0 0 0 0 0 0 0
0 0 0 0 1 4 2 1 1 2 2 2 2 2 3 2 9 10 13 10 6 0 1 1 0 0 0 0 0 0 0 0 0 0 1 0 0 0 0 0 0 0 0
0 0 0 0 0 0 2 4 3 3 1 1 3 2 3 3 1 8 7 7 7 2 3 2 1 0 0 0 0 0 0 0 0 0 0 0 0 0 0 0 0 0 0
0 0 0 0 0 0 0 2 4 7 8 7 4 2 5 2 2 4 2 1 3 1 1 1 1 2 2 1 0 0 0 0 0 0 0 0 0 0 0 0 1 1 1
0 0 0 0 0 0 0 0 2 5 15 9 11 11 6 3 4 12 14 5 3 3 0 0 0 1 1 1 1 1 1 0 1 1 0 0 1 1 1 1 1 1 0
0 0 0 0 0 0 0 0 0 0 0 1 3 15 5 8 9 6 10 15 14 6 0 1 1 1 1 1 1 0 0 1 0 0 0 0 0 1 1 1 1 1 1
0 0 0 0 0 0 0 0 0 0 0 0 0 3 6 5 4 3 6 6 11 2 1 1 1 1 1 1 1 1 0 0 0 0 0 0 0 0 0 0 0 0 0
0 0 0 0 0 0 0 0 0 0 0 0 0 0 3 3 2 3 1 0 0 2 2 4 3 3 1 1 1 1 1 0 0 0 0 0 0 0 0 0 0 0 0
0 0 0 0 0 0 0 0 0 0 0 0 0 0 0 0 0 0 0 0 1 2 2 3 4 5 4 3 3 3 3 2 1 0 0 0 0 0 0 0 0 2 0
0 0 1 2 1 0 0 0 0 0 0 0 0 0 1 0 0 0 0 0 0 2 2 2 3 4 5 5 3 3 3 2 2 2 2 2 2 2 1 2 3 2 2
0 0 0 1 1 0 0 0 0 0 0 0 0 0 7 0 0 0 0 0 0 0 0 0 3 3 3 4 4 4 3 3 2 2 3 3 3 2 3 3 3 3 5
0 0 0 0 0 0 0 0 1 1 1 0 1 0 2 0 0 0 0 0 0 0 0 0 1 0 1 3 3 2 2 2 2 1 2 3 4 4 4 4 5 4 4
0 0 0 0 0 1 3 3 2 2 2 1 1 1 1 2 0 0 0 0 0 0 0 0 0 0 0 0 1 1 0 0 0 0 1 1 2 4 4 3 4 4 4
0 0 0 1 1 2 2 2 2 1 3 3 3 2 1 2 1 0 0 0 0 0 0 0 0 0 0 0 0 0 0 0 0 0 0 1 2 2 1 1 1 1 1
1 1 2 2 3 3 3 5 3 2 2 3 4 4 3 1 1 0 0 0 0 0 0 0 0 0 0 0 0 0 0 0 0 0 1 1 2 1 1 1 1 2 1
3 2 1 1 2 1 2 3 2 3 2 2 2 3 2 1 0 0 0 0 0 0 0 0 0 0 0 0 0 0 0 0 0 0 1 2 2 2 3 2 1 3 3
CIN
0 0 0 0 0 0 0 0 0 0 0 0 0 0 0 0 0 0 0 0 0 0 0 0 0 0 0 0 0 0 0 0 0 0 0 0 0 0 0 0 0 0 0
0 0 0 0 0 0 0 0 0 -1 -1 0 0 0 0 0 0 0 0 0 0 0 0 0 0 0 0 0 0 0 0 0 0 0 0 0 0 0 0 0 0 0 0
0 0 0 0 0 0 0 0 0 0 0 -1 -1 0 0 0 0 0 0 0 0 0 0 0 0 0 0 0 0 0 0 0 0 0 0 0 0 0 0 0 0 0 0
0 0 0 0 0 0 0 0 0 0 0 0 -1 -12 0 0 0 0 0 0 0 0 0 0 0 0 0 0 0 0 0 0 0 -17 0 0 0 0 0 0 0 0 0
0 0 0 0 0 0 0 0 0 0 0 0 0 -1 -1 0 0 0 0 0 0 0 0 0 0 0 0 0 0 0 0 -4 -7 -10 -8 -12 0 0 0 0 0 0 0
0 0 0 0 0 0 0 0 0 0 0 0 0 0 -13 0 0 0 0 0 0 0 0 0 0 0 0 0 0 0 0 -26 -18 -15 -5 -12 -7 0 0 0 0 0 0
0 0 0 0 0 0 0 0 0 0 0 0 0 0 0 0 0 0 0 0 0 0 0 0 0 0 0 0 0 0 0 0 -18 -37 -15 -16 -15 -17 -14 0 0 0 -1
0 0 0 0 0 0 0 0 0 0 0 0 0 0 0 0 0 0 0 0 -2 0 0 0 0 0 0 0 0 0 0 0 0 0 -26 -10 -22 -18 -50 -57 0 0 0
0 0 0 0 0 0 0 0 0 0 0 0 0 0 0 0 0 0 0 0 0 -1 0 0 0 0 0 0 0 0 0 0 0 0 0 -79 -34 -96 -90 0 -4 0 0
0 0 0 0 0 0 0 0 0 0 0 0 0 0 0 0 0 0 0 0 0 0 0 -1 0 0 0 0 0 0 0 0 0 0 0 0 0 0 0 0 -14 0 0
0 0 0 0 0 0 0 0 0 0 0 0 0 0 0 0 0 0 0 0 0 0 0 0 0 0 0 0 0 0 0 0 0 0 0 0 0 0 0 0 0 0 0
0 0 0 0 0 0 0 0 0 0 0 0 0 0 0 0 0 0 0 0 0 0 0 0 0 0 0 0 0 0 0 0 0 0 0 0 0 0 0 0 0 0 0
0 0 0 0 0 0 0 0 0 0 0 0 0 0 0 0 0 0 0 0 0 0 0 0 0 0 0 0 0 0 0 0 0 0 0 0 0 0 0 0 0 0 0
0 0 0 0 0 0 0 0 0 0 0 0 0 0 0 0 0 0 0 0 0 0 0 0 0 0 0 0 0 0 0 0 0 0 0 0 0 0 0 0 0 0 0
0 0 0 0 0 0 0 0 0 0 0 0 0 0 0 0 0 0 0 0 0 0 0 0 0 0 0 0 0 0 0 0 0 0 0 0 0 0 0 0 0 0 0
0 0 0 0 0 0 0 0 0 0 0 0 0 0 0 0 0 0 0 0 0 0 0 0 0 0 0 0 0 0 0 0 0 0 0 0 0 0 0 0 0 0 0
0 0 0 0 0 0 0 0 0 0 0 0 0 0 0 0 0 0 0 0 0 0 0 0 0 0 0 0 0 0 0 0 0 0 0 0 0 0 0 0 0 0 0
0 0 0 0 0 0 0 0 0 0 0 0 0 0 0 0 0 0 0 0 0 0 0 0 0 0 0 0 0 0 0 0 0 0 0 0 0 0 0 0 0 0 0
0 0 0 0 0 0 0 0 0 0 0 0 0 0 0 0 0 0 0 0 0 0 0 0 0 0 0 0 0 0 0 0 0 0 0 0 0 0 0 0 0 0 0
0 0 0 0 0 0 0 0 0 0 0 0 0 0 0 0 0 0 0 0 0 0 0 0 0 0 0 0 0 0 0 0 0 0 0 0 0 0 0 0 0 0 0
0 0 0 0 0 0 0 0 0 0 0 0 0 0 0 0 0 0 0 0 0 0 0 0 0 0 0 0 0 0 0 0 0 0 0 0 0 0 0 0 0 0 0
0 0 0 0 0 0 0 0 0 0 0 0 0 0 0 0 0 0 0 0 0 0 0 0 0 0 0 0 0 0 0 0 0 0 0 0 0 0 0 0 0 0 0
0 0 0 0 0 0 0 0 0 0 0 0 0 0 0 0 0 0 0 0 0 0 0 0 0 0 0 0 0 0 0 0 0 0 0 0 0 0 0 0 0 0 0
0 0 0 0 0 0 0 0 0 0 0 0 0 0 0 0 0 0 0 0 0 0 0 0 0 0 0 0 0 0 0 0 0 0 0 0 0 0 0 0 0 0 0
0 0 0 0 0 0 0 0 0 0 0 0 0 0 0 0 0 0 0 0 0 0 0 0 0 0 0 0 0 0 0 0 0 0 0 0 0 0 0 0 0 0 0
0 0 0 0 0 0 0 0 0 0 0 0 0 0 0 0 0 0 0 0 0 0 0 0 0 0 0 0 0 0 0 0 0 0 0 0 0 0 0 0 0 0 0
Wind_Speed
17 16 16 11 13 9 7 4 14 15 17 18 19 18 19 18 17 16 16 16 18 16 14 14 15 14 9 7 5 5 7 6 6 4 7 6 10 9 7 7 6 7 6
15 15 15 11 9 11 10 6 5 12 15 19 20 19 19 19 19 18 17 15 17 16 16 16 16 11 13 12 8 8 7 8 5 9 8 6 8 10 9 9 7 5 6
15 13 12 14 13 11 10 9 6 1 11 16 18 20 20 19 19 18 18 17 17 17 16 16 15 14 13 9 10 9 8 6 7 5 6 5 4 6 7 7 7 7 6
16 15 15 14 13 11 10 11 6 5 3 12 17 18 18 18 19 19 18 18 17 16 17 16 16 15 15 14 11 11 9 8 8 6 7 7 7 5 7 7 7 7 7
13 14 15 14 12 11 8 11 8 8 5 3 3 16 17 17 14 18 18 18 18 17 16 17 16 17 17 15 10 12 11 9 7 7 7 6 7 6 10 7 8 7 8
13 13 14 14 13 13 13 11 11 9 6 8 6 5 12 11 14 19 19 17 18 18 17 17 16 16 16 17 17 15 15 13 11 9 9 10 12 10 8 8 8 6 7
12 13 14 16 16 13 11 11 8 8 9 10 10 8 11 6 17 7 15 16 16 17 18 16 15 12 16 16 17 18 18 18 18 14 13 12 12 12 11 11 10 8 7
13 13 14 14 13 14 14 14 13 9 11 9 10 10 8 11 16 13 11 17 15 18 18 18 18 18 17 18 16 17 17 16 17 12 14 13 12 10 12 12 11 10 1
12 12 12 13 14 14 14 14 11 9 9 10 11 11 11 10 18 15 11 12 17 17 16 18 18 18 18 21 18 17 17 16 13 16 15 11 12 11 10 6 7 8 6
13 13 11 12 12 13 12 11 9 9 8 8 10 10 15 10 23 21 13 4 13 12 13 16 17 19 18 25 21 18 17 16 15 12 13 8 11 12 17 13 10 10 7
12 12 12 13 11 12 12 9 10 10 10 10 9 9 11 14 13 21 21 6 5 4 4 10 11 19 17 23 27 18 18 16 15 14 12 11 10 10 9 11 12 11 8
10 11 11 12 10 10 11 11 10 10 10 10 9 8 7 9 18 19 20 17 11 2 3 3 5 10 15 21 22 24 15 16 11 11 11 12 11 11 10 11 12 12 10
9 10 10 10 10 10 11 11 9 8 8 8 8 8 8 8 9 22 22 20 17 7 5 6 10 10 10 11 23 23 17 13 13 12 13 13 13 13 13 9 9 7 6
8 8 8 8 8 8 6 8 8 9 8 8 8 8 7 8 9 9 9 9 15 11 11 7 8 8 13 8 6 3 9 13 14 12 13 11 9 9 10 7 3 4 1
6 5 6 6 7 7 7 7 7 8 11 8 8 7 8 8 9 15 13 9 8 7 5 6 6 7 6 7 7 7 5 5 2 1 6 6 5 4 2 1 3 3 4
6 5 5 5 5 5 6 5 9 11 14 14 14 12 7 15 19 18 18 21 18 15 7 7 8 8 9 8 8 7 8 9 6 6 5 5 5 4 4 2 3 2 4
4 5 4 4 5 5 5 6 6 6 9 12 14 14 15 15 18 18 15 14 20 13 7 7 8 8 8 8 8 8 7 7 7 8 9 6 6 6 6 7 5 4 6
3 4 3 2 3 4 4 5 5 5 5 6 9 11 14 15 15 17 14 9 9 11 8 9 8 8 7 7 7 7 7 7 8 7 8 7 7 6 8 8 6 6 6
4 2 2 1 2 4 3 3 3 4 5 5 4 6 11 13 12 14 15 8 7 8 8 8 8 7 7 7 7 7 7 7 7 7 7 6 7 7 8 7 6 9 8
4 7 5 2 2 3 3 3 3 3 4 4 4 4 5 7 7 7 7 7 6 6 6 6 7 7 7 7 7 7 7 8 7 7 6 6 6 5 6 6 5 5 5
3 3 5 3 3 2 3 3 3 4 4 4 4 5 9 5 5 4 5 5 5 5 5 5 5 5 6 6 6 6 6 6 7 7 6 6 5 5 5 5 5 5 4
4 4 4 4 3 3 3 2 3 4 4 4 4 4 7 3 3 3 3 3 4 4 4 5 4 5 5 5 5 5 6 6 6 6 6 6 6 5 5 5 4 4 3
6 6 5 5 4 6 5 5 4 5 5 4 5 5 4 3 3 1 2 2 2 3 3 3 4 3 4 4 5 4 4 5 5 4 5 5 5 5 5 4 4 3 3
7 7 6 6 5 6 6 6 5 7 6 5 5 5 5 4 3 3 2 1 1 1 2 2 3 3 3 3 3 3 3 3 2 2 3 4 4 4 4 4 3 4 3
5 6 6 7 7 7 7 7 6 6 6 6 6 5 5 4 4 4 3 2 2 2 1 0 0 0 1 2 3 3 3 3 2 2 0 1 2 2 2 2 2 2 2
8 8 8 7 7 7 7 7 7 7 7 7 6 6 5 5 5 4 4 3 4 4 3 3 3 3 2 2 2 3 5 5 3 3 1 1 1 1 1 2 3 2 3
Wind_Direction
346 344 338 342 353 7 335 346 199 185 182 182 183 182 181 182 188 188 193 193 201 201 203 207 209 209 211 207 207 209 213 214 223 151 174 173 178 183 180 205 176 201 186
342 341 335 340 348 13 349 359 331 204 192 186 184 186 186 189 189 190 193 192 198 201 203 207 210 207 212 215 214 208 213 208 218 188 181 170 192 198 191 194 196 208 207
342 335 336 358 349 7 341 333 323 308 203 194 194 190 187 190 192 195 196 195 197 203 201 205 206 202 204 205 205 205 208 198 209 191 167 171 157 189 191 205 205 212 218
348 344 353 353 350 351 355 323 13 319 36 203 198 195 193 191 195 197 198 199 200 204 202 204 205 205 204 205 200 202 200 199 198 204 180 177 184 172 196 195 204 214 218
351 343 355 350 345 356 351 318 40 340 3 348 225 201 195 196 196 199 201 202 202 204 206 205 206 206 201 205 198 199 196 199 197 200 195 186 187 177 198 196 219 206 219
343 347 352 349 358 353 355 344 14 351 28 19 46 21 210 198 197 195 198 203 205 205 205 208 206 199 199 196 192 198 194 195 200 199 203 205 205 204 195 198 203 198 224
338 353 355 1 353 353 350 3 11 351 36 36 28 43 55 36 6 341 214 205 205 206 208 206 206 205 201 204 203 200 197 201 206 203 210 211 210 204 194 200 198 202 217
357 352 0 352 348 358 355 7 3 3 36 32 43 31 52 41 20 4 325 225 215 213 210 210 208 206 198 202 202 208 215 212 213 211 217 219 219 208 202 200 198 208 226
4 355 352 349 354 356 0 4 2 353 29 41 41 40 30 16 20 15 339 232 225 223 214 214 211 211 199 195 199 203 209 216 213 212 216 211 194 201 185 165 184 176 202
0 354 357 358 357 359 353 355 355 6 17 40 45 35 39 30 12 18 2 303 237 222 217 219 211 215 197 190 205 206 210 208 204 200 216 219 205 200 178 191 185 198 203
352 353 3 5 358 359 355 356 7 11 19 27 27 27 28 15 24 15 19 356 346 277 253 214 218 212 204 193 202 214 212 206 201 202 204 210 202 196 198 208 195 193 190
350 358 8 5 6 0 358 1 10 21 22 23 24 23 19 21 8 18 23 16 1 20 26 355 328 324 224 197 196 213 199 197 207 199 202 211 204 204 201 205 202 199 190
347 2 3 10 16 3 9 6 13 23 28 22 22 16 12 10 5 8 8 10 14 6 8 15 28 4 254 223 208 204 205 202 210 209 209 211 211 202 199 195 203 222 156
342 355 359 12 12 11 16 16 20 19 20 22 20 14 10 14 7 2 1 358 0 355 358 1 30 53 54 40 58 46 229 216 212 215 217 213 202 187 183 159 144 133 107
334 352 354 3 6 16 20 19 25 28 23 18 11 12 10 10 6 4 8 0 3 7 2 20 24 24 38 45 37 42 34 13 55 217 149 148 138 119 127 106 113 123 144
324 350 358 358 357 8 11 12 36 31 32 24 19 13 18 13 4 6 11 15 22 31 37 30 30 25 33 27 22 32 39 33 28 61 50 85 110 118 128 87 84 117 139
293 323 340 356 345 355 10 5 2 19 34 28 17 11 21 14 7 8 13 21 29 34 47 39 38 34 28 28 28 23 31 21 25 35 69 54 70 82 92 89 92 101 86
251 273 307 337 341 343 1 357 354 359 8 7 12 13 6 12 11 12 13 25 32 34 38 40 39 35 32 31 24 27 25 26 35 38 43 53 58 61 67 66 58 74 93
251 259 261 292 318 325 342 341 350 344 350 357 356 15 7 7 14 22 23 30 35 38 36 39 34 36 38 35 28 29 34 38 40 42 40 37 45 66 68 63 70 80 78
233 259 271 292 295 309 317 329 334 338 331 339 349 360 357 7 19 21 28 28 30 33 35 41 38 31 32 35 35 31 35 36 35 42 44 41 42 49 68 76 72 74 72
232 241 257 253 260 272 295 314 324 318 318 320 323 332 360 18 9 23 23 28 28 25 24 34 40 48 40 37 37 43 49 46 37 35 35 36 44 60 61 67 78 78 85
223 232 235 244 248 251 261 274 291 295 301 308 311 313 335 343 5 12 19 27 30 30 22 19 31 37 44 51 40 39 47 49 45 38 38 37 39 44 45 55 70 82 88
222 228 231 241 249 261 268 281 277 277 282 287 295 294 296 291 297 339 2 351 8 34 33 32 34 33 35 43 48 55 58 50 39 29 39 42 42 38 43 39 38 53 62
217 223 234 242 244 251 263 268 271 267 268 255 264 269 273 275 273 270 264 270 290 3 29 41 41 37 42 36 43 48 54 41 43 47 49 48 43 36 37 31 17 21 7
213 229 240 248 249 256 263 258 257 262 261 259 257 259 262 267 263 257 253 241 247 254 236 217 247 94 93 44 19 8 351 328 277 217 79 41 28 22 13 346 335 332 343
245 245 246 244 241 241 243 247 249 249 251 252 251 252 250 251 251 250 242 229 229 231 233 223 218 217 221 240 258 272 296 306 334 339 319 252 296 334 320 308 302 294 298